Weather Roundup
Issued by NWS Chicago, IL

Home | Current Version | Previous Version | Graphics & Text | Print | Product List | Glossary On
Versions: 1 2 3 4 5 6 7 8 9 10 11 12 13 14 15 16 17 18 19 20 21 22 23 24 25 26 27 28 29 30 31 32 33 34 35 36 37 38 39 40 41 42 43 44 45 46 47 48 49 50
000
NZUS59 KLOT 300121
HRRLOT

CHICAGO AREA WEATHER ROUNDUP
NATIONAL WEATHER SERVICE CHICAGO/ROMEOVILLE IL
800 PM CDT MON JUN 29 2015

NOTE: "FAIR" INDICATES FEW OR NO CLOUDS BELOW 12,000 FEET WITH NO
SIGNIFICANT WEATHER AND/OR OBSTRUCTIONS TO VISIBILITY.

* THESE STATIONS ARE NOT UNDER NWS QUALITY CONTROL. THEY ALSO MAY NOT
  REPORT WEATHER SUCH AS PRECIPITATION OR FOG.

ILZ005-006-012>014-019>023-300200-
NORTHEAST ILLINOIS

CITY           SKY/WX    TMP DP  RH WIND       PRES   REMARKS
OHARE          MOCLDY    69  64  84 SW3       29.79S
MIDWAY         MOCLDY    72  65  78 SW5       29.79S
AURORA         MOCLDY    70  64  81 CALM      29.80F
LANSING*       PTCLDY    70  61  73 W5        29.81S
JOLIET*        MOCLDY    69  67  93 CALM      29.81S
WAUKEGAN       CLEAR     65  61  87 SE5       29.79S
DUPAGE AIRPORT PTCLDY    70  62  76 CALM      29.79F
WHEELING       PTCLDY    70  63  78 S5        29.80F
KANKAKEE*      MOCLDY    68  66  93 CALM      29.82R
MORRIS*        MOCLDY    69  66  91 CALM      29.79R
LEWIS AIRPORT* MOCLDY    69  65  86 CALM      29.80S
NORTHERLY IS     N/A     65  62  90 E1          N/A
$$

WIZ051-052-058>065-066-070>072-300200-
SOUTHEAST WISCONSIN

CITY           SKY/WX    TMP DP  RH WIND       PRES   REMARKS
MILWAUKEE      PTCLDY    67  60  78 SE7       29.79S
KENOSHA*       CLEAR     69  61  75 S6        29.80R
RACINE*        CLEAR     67  60  78 S7        29.81S
BURLINGTON     PTCLDY    67  62  85 CALM      29.79S
WAUKESHA       PTCLDY    66  61  82 SW6       29.80F
WEST BEND      PTCLDY    64  61  88 CALM      29.78F
$$

INZ001>003-010>013-019-020-300200-
NORTHWEST INDIANA

CITY           SKY/WX    TMP DP  RH WIND       PRES   REMARKS
GARY*          PTCLDY    72  68  88 CALM      29.81R
MICHIGAN CITY* NOT AVBL
RENSSELAER*    NOT AVBL
VALPARAISO     MOCLDY    68  63  84 E5        29.82R
$$

LMZ740>746-300200-
SOUTHERN LAKE MICHIGAN

STATION/POSITION TIME  SKY/WX   TEMP WIND        PRES    VSBY
                                AIR  DIR/SP/G
                 (UTC)          (F)  (DEG/KT/KT) (MB)    (MI)
HARRISON CRIB    0100            64  110/  6/  7   N/A
BURNHAM HARBOR   0100            65   CALM  /  2   N/A
CALUMET HARBOR   0000            67   40/  1/  3   N/A
BURNS HARBOR     0000            68   60/  3/  4 1009.8R
MICHIGAN CITY    0100            68   70/  3/  5   N/A
$$

ABBREVIATIONS USED IN REMARKS
   TC - TEMPERATURE IN CELSIUS
  WCI - WIND CHILL INDEX
   HX - HEAT INDEX
  VSB - VISIBILITY
$$



USA.gov is the U.S. government's official web portal to all federal, state and local government web resources and services.